SBI5278 UERP-UNNT

Flight info

Callsign SBI5278
Flight time 2h 50m
Altitude 34000
Route N0460F340 DEDOR W189 TURMA R27 CE R116 TOKMO A300 NN G829 REGMI
Aircraft B738/M-VGDW/C

Departure

Time 2026-05-05 12:45
Airport Polyarny Airport (UERP)

Arrival

Time 2026-05-05 15:35
Airport Novosibirsk Tolmachevo Airport (UNNT)
Time Latitude Longitude Altitude Speed Heading
2026-05-05 11:52 66.39928 112.03771 1670 ft 0 kts 75°
2026-05-05 12:30 66.39928 112.03768 1658 ft 2 kts 75°
2026-05-05 12:30 66.39919 112.03710 1675 ft 4 kts 54°
2026-05-05 12:30 66.39901 112.03668 1672 ft 4 kts 15°
2026-05-05 12:30 66.39880 112.03666 1680 ft 0 kts 344°
2026-05-05 12:36 66.39881 112.03666 1680 ft 0 kts 344°
2026-05-05 12:37 66.39899 112.03653 1674 ft 5 kts 344°
2026-05-05 12:37 66.39937 112.03623 1673 ft 6 kts 335°
2026-05-05 12:37 66.39947 112.03531 1680 ft 6 kts 263°
2026-05-05 12:37 66.39935 112.03413 1674 ft 9 kts 255°
2026-05-05 12:38 66.39913 112.03224 1667 ft 12 kts 258°
2026-05-05 12:38 66.39958 112.03073 1671 ft 12 kts 335°
2026-05-05 12:38 66.40041 112.03007 1668 ft 13 kts 344°
2026-05-05 12:38 66.40126 112.02945 1674 ft 13 kts 343°
2026-05-05 12:39 66.40210 112.02884 1669 ft 12 kts 343°
2026-05-05 12:39 66.40293 112.02824 1668 ft 10 kts 344°
2026-05-05 12:39 66.40373 112.02767 1676 ft 12 kts 344°
2026-05-05 12:39 66.40457 112.02706 1670 ft 12 kts 344°
2026-05-05 12:40 66.40539 112.02647 1671 ft 12 kts 344°
2026-05-05 12:40 66.40619 112.02590 1671 ft 12 kts 343°
2026-05-05 12:40 66.40697 112.02533 1669 ft 12 kts 343°
2026-05-05 12:40 66.40779 112.02472 1674 ft 14 kts 343°
2026-05-05 12:41 66.40877 112.02400 1682 ft 17 kts 343°
2026-05-05 12:41 66.40994 112.02314 1681 ft 18 kts 343°
2026-05-05 12:41 66.41110 112.02230 1677 ft 17 kts 343°
2026-05-05 12:41 66.41222 112.02149 1674 ft 16 kts 343°
2026-05-05 12:42 66.41307 112.02147 1680 ft 8 kts 24°
2026-05-05 12:42 66.41345 112.02115 1667 ft 7 kts 270°
2026-05-05 12:42 66.41309 112.02084 1670 ft 0 kts 164°
2026-05-05 12:43 66.41307 112.02085 1685 ft 1 kts 164°
2026-05-05 12:43 66.41275 112.02107 1672 ft 0 kts 164°
2026-05-05 12:43 66.41275 112.02108 1672 ft 0 kts 164°
2026-05-05 12:44 66.41200 112.02162 1676 ft 40 kts 163°
2026-05-05 12:44 66.40700 112.02526 1679 ft 109 kts 163°
2026-05-05 12:44 66.39775 112.03198 1680 ft 164 kts 163°
2026-05-05 12:44 66.38620 112.04092 2218 ft 176 kts 166°
2026-05-05 12:45 66.37379 112.04568 2817 ft 189 kts 198°
2026-05-05 12:45 66.36372 112.02684 3486 ft 188 kts 244°
2026-05-05 12:45 66.36045 111.99486 3719 ft 208 kts 263°
2026-05-05 12:45 66.35833 111.95744 4052 ft 225 kts 263°
2026-05-05 12:46 66.35607 111.91704 4347 ft 246 kts 263°
2026-05-05 12:46 66.35362 111.87408 5028 ft 253 kts 263°
2026-05-05 12:46 66.35109 111.83037 5887 ft 256 kts 264°
2026-05-05 12:46 66.34849 111.78634 6692 ft 259 kts 264°
2026-05-05 12:47 66.34581 111.74140 7421 ft 265 kts 264°
2026-05-05 12:47 66.34305 111.69577 8259 ft 267 kts 263°
2026-05-05 12:47 66.34026 111.64979 9068 ft 271 kts 263°
2026-05-05 12:47 66.33739 111.60308 9843 ft 274 kts 263°
2026-05-05 12:48 66.33446 111.55511 10269 ft 291 kts 263°
2026-05-05 12:48 66.33127 111.50325 10452 ft 314 kts 263°
2026-05-05 12:48 66.32780 111.44770 10675 ft 334 kts 263°
2026-05-05 12:48 66.32410 111.38973 11224 ft 342 kts 262°
2026-05-05 12:49 66.31832 111.33233 12040 ft 343 kts 256°
2026-05-05 12:49 66.31078 111.27561 12727 ft 348 kts 253°
2026-05-05 12:49 66.30260 111.21830 13384 ft 354 kts 253°
2026-05-05 12:49 66.29426 111.16053 14004 ft 357 kts 253°
2026-05-05 12:50 66.28591 111.10221 14670 ft 359 kts 253°
2026-05-05 12:50 66.27759 111.04348 15312 ft 362 kts 254°
2026-05-05 12:50 66.26965 110.98693 15931 ft 364 kts 254°
2026-05-05 12:50 66.26132 110.92728 16559 ft 367 kts 254°
2026-05-05 12:51 66.25283 110.86631 17183 ft 370 kts 254°
2026-05-05 12:51 66.24449 110.80642 17784 ft 374 kts 254°
2026-05-05 12:51 66.23597 110.74532 18344 ft 376 kts 254°
2026-05-05 12:51 66.22737 110.68377 18873 ft 379 kts 254°
2026-05-05 12:52 66.21870 110.62195 19397 ft 382 kts 255°
2026-05-05 12:52 66.20991 110.55950 19929 ft 384 kts 255°
2026-05-05 12:52 66.20105 110.49672 20433 ft 387 kts 255°
2026-05-05 12:52 66.19213 110.43376 20911 ft 390 kts 255°
2026-05-05 12:53 66.18307 110.36996 21322 ft 395 kts 255°
2026-05-05 12:53 66.17391 110.30578 21803 ft 396 kts 254°
2026-05-05 12:53 66.16473 110.24171 22408 ft 396 kts 254°
2026-05-05 12:53 66.15547 110.17734 22878 ft 399 kts 254°
2026-05-05 12:54 66.13667 110.04723 23660 ft 405 kts 254°
2026-05-05 12:54 66.12747 109.98390 24044 ft 407 kts 254°
2026-05-05 12:54 66.11786 109.91804 24445 ft 409 kts 254°
2026-05-05 12:55 66.10818 109.85189 24810 ft 411 kts 254°
2026-05-05 12:55 66.09840 109.78536 25163 ft 414 kts 254°
2026-05-05 12:55 66.08855 109.71852 25515 ft 416 kts 254°
2026-05-05 12:55 66.07860 109.65133 25868 ft 418 kts 254°
2026-05-05 12:56 66.06858 109.58389 26209 ft 420 kts 254°
2026-05-05 12:56 66.05848 109.51612 26533 ft 422 kts 254°
2026-05-05 12:56 66.04830 109.44817 26871 ft 424 kts 254°
2026-05-05 12:56 66.03806 109.38001 27181 ft 426 kts 254°
2026-05-05 12:57 66.02787 109.31242 27481 ft 428 kts 254°
2026-05-05 12:57 66.01747 109.24366 27724 ft 430 kts 253°
2026-05-05 12:57 66.00698 109.17460 28056 ft 432 kts 253°
2026-05-05 12:57 65.99643 109.10546 28360 ft 433 kts 253°
2026-05-05 12:58 65.98581 109.03609 28726 ft 433 kts 253°
2026-05-05 12:58 65.97558 108.96963 29164 ft 431 kts 253°
2026-05-05 12:58 65.96499 108.90103 29620 ft 430 kts 253°
2026-05-05 12:58 65.95438 108.83249 30000 ft 429 kts 253°
2026-05-05 12:59 65.94375 108.76409 30299 ft 430 kts 253°
2026-05-05 12:59 65.93307 108.69559 30612 ft 430 kts 253°
2026-05-05 12:59 65.92239 108.62731 30929 ft 429 kts 253°
2026-05-05 13:00 65.90093 108.49095 31540 ft 429 kts 253°
2026-05-05 13:00 65.89016 108.42289 31856 ft 429 kts 252°
2026-05-05 13:01 65.85770 108.21920 32749 ft 429 kts 252°
2026-05-05 13:01 65.84683 108.15151 33107 ft 426 kts 252°
2026-05-05 13:01 65.83600 108.08435 33502 ft 424 kts 252°
2026-05-05 13:01 65.82520 108.01754 33753 ft 424 kts 252°
2026-05-05 13:02 65.80374 107.88534 33852 ft 430 kts 252°
2026-05-05 13:02 65.78173 107.75085 33858 ft 429 kts 251°
2026-05-05 13:03 65.75967 107.61716 33854 ft 424 kts 251°
2026-05-05 13:03 65.73762 107.48431 33864 ft 423 kts 251°
2026-05-05 13:04 65.71551 107.35194 33870 ft 423 kts 251°
2026-05-05 13:04 65.69326 107.21965 33868 ft 423 kts 251°
2026-05-05 13:05 65.67452 107.10878 33864 ft 424 kts 251°
2026-05-05 13:05 65.65240 106.97904 33869 ft 424 kts 251°
2026-05-05 13:06 65.62920 106.84749 33848 ft 425 kts 250°
2026-05-05 13:06 65.60567 106.71615 33866 ft 426 kts 250°
2026-05-05 13:07 65.58220 106.58571 33876 ft 426 kts 250°
2026-05-05 13:07 65.55844 106.45416 33879 ft 428 kts 250°
2026-05-05 13:08 65.53451 106.32243 33873 ft 429 kts 250°
2026-05-05 13:08 65.51045 106.19079 33879 ft 429 kts 249°
2026-05-05 13:09 65.48626 106.05932 33877 ft 429 kts 249°
2026-05-05 13:09 65.46239 105.93049 33879 ft 429 kts 249°
2026-05-05 13:10 65.43797 105.79948 33876 ft 429 kts 249°
2026-05-05 13:10 65.41347 105.66894 33879 ft 428 kts 249°
2026-05-05 13:11 65.38888 105.53877 33880 ft 428 kts 249°
2026-05-05 13:11 65.36417 105.40876 33879 ft 428 kts 249°
2026-05-05 13:12 65.33952 105.27985 33891 ft 428 kts 248°
2026-05-05 13:12 65.31443 105.14954 33883 ft 429 kts 248°
2026-05-05 13:13 65.28955 105.02112 33879 ft 428 kts 248°
2026-05-05 13:13 65.26485 104.89442 33886 ft 428 kts 248°
2026-05-05 13:14 65.23962 104.76578 33888 ft 428 kts 248°
2026-05-05 13:14 65.21428 104.63741 33863 ft 428 kts 248°
2026-05-05 13:15 65.18886 104.50943 33888 ft 427 kts 248°
2026-05-05 13:15 65.16329 104.38144 33900 ft 428 kts 248°
2026-05-05 13:16 65.13762 104.25380 33896 ft 428 kts 247°
2026-05-05 13:16 65.11179 104.12611 33896 ft 429 kts 247°
2026-05-05 13:17 65.08594 103.99915 33894 ft 429 kts 247°
2026-05-05 13:17 65.06030 103.87395 33888 ft 429 kts 247°
2026-05-05 13:18 65.03418 103.74717 33893 ft 428 kts 247°
2026-05-05 13:18 65.00796 103.62072 33887 ft 428 kts 247°
2026-05-05 13:19 64.98189 103.49569 33895 ft 427 kts 246°
2026-05-05 13:19 64.95551 103.36996 33905 ft 427 kts 246°
2026-05-05 13:20 64.92901 103.24439 33903 ft 428 kts 246°
2026-05-05 13:20 64.90238 103.11899 33909 ft 428 kts 246°
2026-05-05 13:21 64.87610 102.99593 33904 ft 428 kts 246°
2026-05-05 13:21 64.84926 102.87097 33904 ft 428 kts 246°
2026-05-05 13:22 64.82231 102.74626 33899 ft 428 kts 246°
2026-05-05 13:22 64.79530 102.62200 33904 ft 427 kts 245°
2026-05-05 13:23 64.76823 102.49816 33908 ft 427 kts 245°
2026-05-05 13:23 64.74105 102.37455 33901 ft 427 kts 245°
2026-05-05 13:24 64.71376 102.25118 33907 ft 427 kts 245°
2026-05-05 13:24 64.68641 102.12825 33910 ft 425 kts 245°
2026-05-05 13:25 64.65903 102.00586 33906 ft 425 kts 245°
2026-05-05 13:25 64.63210 101.88617 33907 ft 424 kts 245°
2026-05-05 13:26 64.60477 101.76539 33900 ft 423 kts 245°
2026-05-05 13:26 64.57724 101.64439 33904 ft 422 kts 244°
2026-05-05 13:27 64.54964 101.52375 33893 ft 422 kts 244°
2026-05-05 13:27 64.52194 101.40338 33898 ft 422 kts 244°
2026-05-05 13:28 64.49418 101.28340 33910 ft 422 kts 244°
2026-05-05 13:28 64.46629 101.16353 33904 ft 422 kts 244°
2026-05-05 13:29 64.43832 101.04394 33911 ft 422 kts 244°
2026-05-05 13:29 64.41077 100.92678 33909 ft 422 kts 244°
2026-05-05 13:30 64.38263 100.80782 33906 ft 421 kts 243°
2026-05-05 13:30 64.35440 100.68906 33911 ft 421 kts 243°
2026-05-05 13:31 64.32613 100.57069 33905 ft 421 kts 243°
2026-05-05 13:31 64.29791 100.45323 33907 ft 421 kts 243°
2026-05-05 13:32 64.27186 100.33282 33904 ft 420 kts 247°
2026-05-05 13:32 64.24748 100.21073 33913 ft 420 kts 247°
2026-05-05 13:33 64.22288 100.08899 33911 ft 420 kts 246°
2026-05-05 13:33 64.19839 99.96989 33900 ft 421 kts 246°
2026-05-05 13:34 64.17325 99.84875 33907 ft 420 kts 246°
2026-05-05 13:34 64.14802 99.72784 33909 ft 420 kts 246°
2026-05-05 13:35 64.12278 99.60738 33905 ft 420 kts 246°
2026-05-05 13:35 64.09740 99.48703 33911 ft 420 kts 246°
2026-05-05 13:36 64.07206 99.36700 33902 ft 419 kts 245°
2026-05-05 13:36 64.04666 99.24719 33907 ft 418 kts 245°
2026-05-05 13:37 64.02125 99.12794 33903 ft 418 kts 245°
2026-05-05 13:37 63.99582 99.00929 33906 ft 418 kts 245°
2026-05-05 13:38 63.97073 98.89288 33911 ft 417 kts 245°
2026-05-05 13:38 63.94502 98.77428 33908 ft 418 kts 245°
2026-05-05 13:39 63.91923 98.65596 33911 ft 418 kts 245°
2026-05-05 13:39 63.89328 98.53761 33913 ft 418 kts 244°
2026-05-05 13:40 63.86730 98.41975 33905 ft 417 kts 244°
2026-05-05 13:40 63.84146 98.30315 33897 ft 416 kts 244°
2026-05-05 13:41 63.81543 98.18635 33872 ft 415 kts 244°
2026-05-05 13:41 63.78940 98.07017 33897 ft 413 kts 244°
2026-05-05 13:42 63.76376 97.95634 33899 ft 413 kts 244°
2026-05-05 13:42 63.73759 97.84080 33906 ft 413 kts 244°
2026-05-05 13:43 63.71126 97.72516 33909 ft 414 kts 244°
2026-05-05 13:43 63.68486 97.60987 33899 ft 414 kts 243°
2026-05-05 13:44 63.65837 97.49477 33908 ft 414 kts 243°
2026-05-05 13:44 63.63179 97.37988 33900 ft 414 kts 243°
2026-05-05 13:45 63.60512 97.26527 33906 ft 413 kts 243°
2026-05-05 13:45 63.57843 97.15113 33908 ft 413 kts 243°
2026-05-05 13:46 63.55160 97.03701 33899 ft 413 kts 243°
2026-05-05 13:46 63.52522 96.92537 33908 ft 413 kts 243°
2026-05-05 13:47 63.49838 96.81237 33915 ft 413 kts 243°
2026-05-05 13:47 63.47107 96.69799 33906 ft 414 kts 243°
2026-05-05 13:48 63.44380 96.58439 33907 ft 415 kts 243°
2026-05-05 13:48 63.41642 96.47091 33911 ft 415 kts 243°
2026-05-05 13:49 63.39357 96.37666 33907 ft 416 kts 242°
2026-05-05 13:49 63.36147 96.24496 33904 ft 416 kts 242°
2026-05-05 13:50 63.33375 96.13181 33912 ft 416 kts 242°
2026-05-05 13:50 63.31046 96.03723 33920 ft 416 kts 242°
2026-05-05 13:51 63.28313 95.92676 33907 ft 415 kts 242°
2026-05-05 13:51 63.25521 95.81443 33911 ft 415 kts 242°
2026-05-05 13:52 63.22723 95.70249 33912 ft 414 kts 242°
2026-05-05 13:52 63.19939 95.59164 33911 ft 414 kts 242°
2026-05-05 13:53 63.17131 95.48041 33905 ft 414 kts 242°
2026-05-05 13:53 63.14317 95.36949 33907 ft 413 kts 241°
2026-05-05 13:54 63.11494 95.25873 33917 ft 413 kts 241°
2026-05-05 13:54 63.08666 95.14839 33905 ft 413 kts 241°
2026-05-05 13:55 63.05833 95.03839 33905 ft 412 kts 241°
2026-05-05 13:55 63.03044 94.93060 33895 ft 412 kts 241°
2026-05-05 13:56 63.00198 94.82115 33908 ft 412 kts 241°
2026-05-05 13:56 62.97349 94.71212 33904 ft 413 kts 240°
2026-05-05 13:57 62.94479 94.60281 33912 ft 413 kts 240°
2026-05-05 13:57 62.91594 94.49350 33904 ft 414 kts 240°
2026-05-05 13:58 62.88699 94.38432 33910 ft 415 kts 240°
2026-05-05 13:58 62.85789 94.27508 33913 ft 415 kts 240°
2026-05-05 13:59 62.81402 94.11135 33908 ft 416 kts 240°
2026-05-05 14:00 62.77037 93.94973 33893 ft 416 kts 240°
2026-05-05 14:00 62.74067 93.84135 33909 ft 416 kts 240°
2026-05-05 14:01 62.71086 93.73309 33925 ft 416 kts 240°
2026-05-05 14:01 62.68097 93.62492 33924 ft 417 kts 240°
2026-05-05 14:02 62.65094 93.51667 33919 ft 418 kts 240°
2026-05-05 14:02 62.62081 93.40853 33919 ft 418 kts 240°
2026-05-05 14:03 62.59077 93.30128 33927 ft 419 kts 240°
2026-05-05 14:03 62.56040 93.19334 33921 ft 419 kts 240°
2026-05-05 14:04 62.52995 93.08563 33917 ft 419 kts 240°
2026-05-05 14:04 62.49997 92.98011 33926 ft 419 kts 240°
2026-05-05 14:05 62.46940 92.87297 33914 ft 418 kts 240°
2026-05-05 14:05 62.43875 92.76608 33924 ft 418 kts 240°
2026-05-05 14:06 62.40804 92.65951 33923 ft 418 kts 240°
2026-05-05 14:06 62.37727 92.55321 33923 ft 418 kts 239°
2026-05-05 14:07 62.34642 92.44710 33919 ft 418 kts 239°
2026-05-05 14:07 62.31543 92.34104 33922 ft 418 kts 239°
2026-05-05 14:08 62.28436 92.23521 33905 ft 419 kts 239°
2026-05-05 14:08 62.25319 92.12953 33917 ft 418 kts 239°
2026-05-05 14:09 62.22201 92.02427 33901 ft 418 kts 239°
2026-05-05 14:09 62.19131 91.92113 33909 ft 418 kts 239°
2026-05-05 14:10 62.15993 91.81617 33905 ft 418 kts 239°
2026-05-05 14:10 62.12874 91.71234 33899 ft 418 kts 239°
2026-05-05 14:11 62.09727 91.60805 33897 ft 418 kts 239°
2026-05-05 14:11 62.06572 91.50394 33895 ft 417 kts 239°
2026-05-05 14:12 62.03411 91.40015 33885 ft 418 kts 239°
2026-05-05 14:12 62.00239 91.29645 33896 ft 417 kts 239°
2026-05-05 14:13 61.97068 91.19324 33895 ft 418 kts 239°
2026-05-05 14:13 61.93879 91.08990 33881 ft 418 kts 239°
2026-05-05 14:14 61.90735 90.98845 33879 ft 418 kts 239°
2026-05-05 14:14 61.87528 90.88542 33884 ft 418 kts 239°
2026-05-05 14:15 61.84314 90.78260 33885 ft 419 kts 238°
2026-05-05 14:15 61.81095 90.67994 33868 ft 419 kts 239°
2026-05-05 14:16 61.77865 90.57711 33883 ft 420 kts 239°
2026-05-05 14:16 61.74650 90.47514 33877 ft 420 kts 239°
2026-05-05 14:17 61.71399 90.37251 33882 ft 421 kts 238°
2026-05-05 14:17 61.68138 90.27001 33878 ft 422 kts 238°
2026-05-05 14:18 61.64864 90.16747 33876 ft 422 kts 238°
2026-05-05 14:18 61.61555 90.06545 33865 ft 423 kts 234°
2026-05-05 14:19 61.57362 89.98121 33860 ft 430 kts 218°
2026-05-05 14:19 61.52187 89.91692 33871 ft 433 kts 213°
2026-05-05 14:20 61.46941 89.85452 33867 ft 434 kts 213°
2026-05-05 14:20 61.41705 89.79156 33876 ft 434 kts 214°
2026-05-05 14:21 61.36469 89.72833 33868 ft 435 kts 214°
2026-05-05 14:21 61.31222 89.66511 33867 ft 436 kts 214°
2026-05-05 14:22 61.25969 89.60209 33889 ft 436 kts 213°
2026-05-05 14:22 61.20699 89.53912 33876 ft 437 kts 213°
2026-05-05 14:23 61.15427 89.47637 33883 ft 437 kts 213°
2026-05-05 14:23 61.10150 89.41375 33884 ft 436 kts 213°
2026-05-05 14:24 61.04880 89.35140 33890 ft 436 kts 213°
2026-05-05 14:24 60.99654 89.28980 33883 ft 435 kts 213°
2026-05-05 14:25 60.94400 89.22810 33889 ft 434 kts 213°
2026-05-05 14:25 60.89146 89.16665 33890 ft 434 kts 213°
2026-05-05 14:26 60.83893 89.10543 33892 ft 434 kts 213°
2026-05-05 14:26 60.78638 89.04443 33893 ft 434 kts 213°
2026-05-05 14:27 60.73463 88.98459 33879 ft 434 kts 213°
2026-05-05 14:27 60.68208 88.92405 33903 ft 434 kts 213°
2026-05-05 14:28 60.62939 88.86356 33900 ft 435 kts 213°
2026-05-05 14:28 60.57652 88.80311 33898 ft 436 kts 213°
2026-05-05 14:29 60.52359 88.74282 33902 ft 437 kts 213°
2026-05-05 14:29 60.47050 88.68259 33905 ft 437 kts 213°
2026-05-05 14:30 60.41740 88.62254 33894 ft 437 kts 213°
2026-05-05 14:30 60.36422 88.56265 33900 ft 438 kts 213°
2026-05-05 14:31 60.31091 88.50284 33907 ft 439 kts 213°
2026-05-05 14:31 60.25741 88.44304 33904 ft 440 kts 213°
2026-05-05 14:32 60.20376 88.38331 33892 ft 441 kts 213°
2026-05-05 14:32 60.15003 88.32370 33876 ft 441 kts 213°
2026-05-05 14:33 60.10537 88.27434 33895 ft 441 kts 213°
2026-05-05 14:33 60.05156 88.21505 33900 ft 441 kts 213°
2026-05-05 14:34 59.99769 88.15593 33898 ft 442 kts 213°
2026-05-05 14:34 59.94377 88.09696 33899 ft 442 kts 213°
2026-05-05 14:35 59.88985 88.03823 33902 ft 442 kts 213°
2026-05-05 14:35 59.83713 87.98096 33894 ft 441 kts 213°
2026-05-05 14:36 59.78329 87.92277 33900 ft 440 kts 213°
2026-05-05 14:36 59.72945 87.86477 33899 ft 440 kts 213°
2026-05-05 14:37 59.67563 87.80700 33905 ft 440 kts 213°
2026-05-05 14:37 59.62171 87.74933 33905 ft 440 kts 213°
2026-05-05 14:38 59.56778 87.69186 33884 ft 440 kts 213°
2026-05-05 14:38 59.51380 87.63455 33898 ft 440 kts 213°
2026-05-05 14:39 59.45982 87.57744 33906 ft 441 kts 213°
2026-05-05 14:39 59.40576 87.52046 33904 ft 441 kts 213°
2026-05-05 14:40 59.35159 87.46357 33906 ft 441 kts 213°
2026-05-05 14:40 59.29737 87.40682 33884 ft 442 kts 214°
2026-05-05 14:41 59.24308 87.35022 33909 ft 442 kts 213°
2026-05-05 14:41 59.18875 87.29378 33902 ft 443 kts 213°
2026-05-05 14:42 59.13435 87.23744 33905 ft 443 kts 213°
2026-05-05 14:42 59.08024 87.18153 33905 ft 443 kts 213°
2026-05-05 14:43 59.02550 87.12461 33900 ft 443 kts 214°
2026-05-05 14:43 58.97146 87.06851 33893 ft 443 kts 214°
2026-05-05 14:44 58.91713 87.01233 33894 ft 443 kts 214°
2026-05-05 14:44 58.86360 86.95720 33896 ft 443 kts 214°
2026-05-05 14:45 58.80924 86.90143 33897 ft 442 kts 214°
2026-05-05 14:45 58.75484 86.84582 33875 ft 442 kts 214°
2026-05-05 14:46 58.70056 86.79050 33868 ft 441 kts 216°
2026-05-05 14:46 58.64634 86.73547 33888 ft 441 kts 215°
2026-05-05 14:47 58.58967 86.68795 33905 ft 447 kts 209°
2026-05-05 14:47 58.53154 86.64539 33903 ft 448 kts 208°
2026-05-05 14:48 58.47340 86.60278 33902 ft 447 kts 208°
2026-05-05 14:48 58.41543 86.55961 33882 ft 447 kts 210°
2026-05-05 14:49 58.35762 86.51632 33891 ft 447 kts 210°
2026-05-05 14:49 58.29972 86.47302 33899 ft 447 kts 210°
2026-05-05 14:50 58.24182 86.42989 33903 ft 447 kts 210°
2026-05-05 14:50 58.18385 86.38689 33903 ft 447 kts 210°
2026-05-05 14:51 58.12584 86.34402 33889 ft 447 kts 210°
2026-05-05 14:51 58.06791 86.30140 33893 ft 446 kts 211°
2026-05-05 14:52 58.01006 86.25894 33897 ft 446 kts 211°
2026-05-05 14:52 57.95229 86.21665 33906 ft 445 kts 211°
2026-05-05 14:53 57.89496 86.17485 33904 ft 444 kts 211°
2026-05-05 14:53 57.83732 86.13299 33898 ft 443 kts 212°
2026-05-05 14:54 57.77973 86.09130 33907 ft 444 kts 212°
2026-05-05 14:54 57.72210 86.04971 33911 ft 444 kts 212°
2026-05-05 14:55 57.66441 86.00823 33906 ft 445 kts 212°
2026-05-05 14:55 57.60754 85.96747 33912 ft 445 kts 212°
2026-05-05 14:56 57.54971 85.92617 33910 ft 445 kts 212°
2026-05-05 14:56 57.49184 85.88498 33912 ft 446 kts 212°
2026-05-05 14:57 57.43383 85.84383 33910 ft 447 kts 212°
2026-05-05 14:57 57.37574 85.80277 33903 ft 446 kts 212°
2026-05-05 14:58 57.31811 85.76226 33904 ft 441 kts 212°
2026-05-05 14:58 57.26082 85.72200 33912 ft 440 kts 212°
2026-05-05 14:59 57.20362 85.68192 33915 ft 440 kts 212°
2026-05-05 14:59 57.14625 85.64188 33922 ft 441 kts 212°
2026-05-05 15:00 57.09847 85.60862 33926 ft 442 kts 212°
2026-05-05 15:00 57.03099 85.56187 33870 ft 444 kts 212°
2026-05-05 15:01 56.97328 85.52207 33920 ft 443 kts 211°
2026-05-05 15:01 56.91573 85.48247 33927 ft 444 kts 211°
2026-05-05 15:02 56.85793 85.44283 33934 ft 444 kts 211°
2026-05-05 15:02 56.80010 85.40328 33934 ft 444 kts 211°
2026-05-05 15:03 56.74227 85.36385 33917 ft 443 kts 211°
2026-05-05 15:03 56.68438 85.32536 33931 ft 446 kts 206°
2026-05-05 15:04 56.62305 85.30072 33951 ft 453 kts 201°
2026-05-05 15:04 56.56133 85.27872 33955 ft 451 kts 201°
2026-05-05 15:05 56.46954 85.24375 33967 ft 448 kts 202°
2026-05-05 15:06 56.41307 85.20782 33978 ft 413 kts 227°
2026-05-05 15:06 56.39307 85.17277 33971 ft 395 kts 241°
2026-05-05 15:06 56.37810 85.13167 33975 ft 387 kts 251°
2026-05-05 15:06 56.36877 85.08669 33976 ft 380 kts 263°
2026-05-05 15:07 56.36298 85.04005 33968 ft 380 kts 264°
2026-05-05 15:07 56.35275 84.94811 33920 ft 378 kts 265°
2026-05-05 15:07 56.34757 84.90177 33582 ft 372 kts 264°
2026-05-05 15:08 56.34240 84.85664 33157 ft 365 kts 264°
2026-05-05 15:08 56.33724 84.81223 32743 ft 360 kts 264°
2026-05-05 15:08 56.33215 84.76891 32368 ft 355 kts 264°
2026-05-05 15:08 56.32696 84.72502 31933 ft 352 kts 264°
2026-05-05 15:09 56.32193 84.68268 31539 ft 348 kts 264°
2026-05-05 15:09 56.31686 84.64027 31136 ft 345 kts 264°
2026-05-05 15:09 56.31181 84.59816 30740 ft 342 kts 264°
2026-05-05 15:09 56.30680 84.55648 30345 ft 339 kts 264°
2026-05-05 15:10 56.30181 84.51513 29957 ft 337 kts 263°
2026-05-05 15:10 56.29683 84.47403 29507 ft 334 kts 263°
2026-05-05 15:10 56.29189 84.43339 29110 ft 330 kts 263°
2026-05-05 15:10 56.28699 84.39322 28700 ft 327 kts 263°
2026-05-05 15:11 56.28214 84.35346 28303 ft 324 kts 263°
2026-05-05 15:11 56.27730 84.31398 27923 ft 321 kts 263°
2026-05-05 15:11 56.27250 84.27486 27520 ft 320 kts 263°
2026-05-05 15:11 56.26768 84.23555 27145 ft 325 kts 262°
2026-05-05 15:12 56.26272 84.19512 26752 ft 336 kts 262°
2026-05-05 15:12 56.25763 84.15404 26333 ft 335 kts 262°
2026-05-05 15:12 56.25255 84.11328 25925 ft 332 kts 262°
2026-05-05 15:12 56.24751 84.07298 25522 ft 329 kts 262°
2026-05-05 15:13 56.24218 84.03309 25127 ft 328 kts 257°
2026-05-05 15:13 56.23388 83.99665 24764 ft 330 kts 250°
2026-05-05 15:13 56.22269 83.96075 24531 ft 328 kts 243°
2026-05-05 15:13 56.20866 83.92822 24205 ft 329 kts 237°
2026-05-05 15:14 56.19379 83.89712 23844 ft 328 kts 236°
2026-05-05 15:14 56.17888 83.86627 23469 ft 326 kts 236°
2026-05-05 15:14 56.16411 83.83561 23041 ft 324 kts 236°
2026-05-05 15:14 56.14946 83.80510 22648 ft 321 kts 236°
2026-05-05 15:15 56.13499 83.77486 22284 ft 318 kts 236°
2026-05-05 15:15 56.12063 83.74484 21927 ft 315 kts 236°
2026-05-05 15:15 56.10638 83.71510 21550 ft 314 kts 236°
2026-05-05 15:15 56.09219 83.68554 21190 ft 314 kts 234°
2026-05-05 15:16 56.07610 83.65846 20827 ft 320 kts 224°
2026-05-05 15:16 56.05722 83.63634 20486 ft 330 kts 216°
2026-05-05 15:16 56.03705 83.61624 20130 ft 340 kts 215°
2026-05-05 15:16 56.01595 83.59573 19738 ft 341 kts 214°
2026-05-05 15:17 55.99542 83.57592 19362 ft 339 kts 214°
2026-05-05 15:17 55.97474 83.55595 18986 ft 337 kts 214°
2026-05-05 15:17 55.96083 83.54247 18734 ft 336 kts 214°
2026-05-05 15:17 55.93351 83.51591 18231 ft 333 kts 214°
2026-05-05 15:18 55.92007 83.50282 17993 ft 331 kts 214°
2026-05-05 15:18 55.89374 83.47721 17642 ft 326 kts 214°
2026-05-05 15:18 55.87397 83.45769 17247 ft 323 kts 217°
2026-05-05 15:18 55.85551 83.43517 16715 ft 321 kts 223°
2026-05-05 15:19 55.84349 83.41882 16400 ft 321 kts 224°
2026-05-05 15:19 55.82617 83.39461 16010 ft 320 kts 224°
2026-05-05 15:19 55.80877 83.37024 15650 ft 317 kts 224°
2026-05-05 15:19 55.79140 83.34613 15281 ft 316 kts 223°
2026-05-05 15:20 55.77407 83.32226 14898 ft 315 kts 223°
2026-05-05 15:20 55.75675 83.29858 14530 ft 313 kts 223°
2026-05-05 15:20 55.73948 83.27510 14170 ft 312 kts 222°
2026-05-05 15:20 55.72224 83.25177 13819 ft 310 kts 222°
2026-05-05 15:21 55.70519 83.22883 13499 ft 306 kts 223°
2026-05-05 15:21 55.68832 83.20609 13182 ft 302 kts 223°
2026-05-05 15:21 55.67170 83.18369 12830 ft 299 kts 223°
2026-05-05 15:21 55.65516 83.16142 12460 ft 298 kts 223°
2026-05-05 15:22 55.63872 83.13932 12110 ft 295 kts 223°
2026-05-05 15:22 55.62244 83.11748 11777 ft 293 kts 224°
2026-05-05 15:22 55.60628 83.09583 11435 ft 290 kts 224°
2026-05-05 15:22 55.59026 83.07439 11174 ft 286 kts 224°
2026-05-05 15:23 55.57469 83.05364 11080 ft 275 kts 225°
2026-05-05 15:23 55.55971 83.03369 10998 ft 264 kts 226°
2026-05-05 15:23 55.54524 83.01439 10859 ft 257 kts 226°
2026-05-05 15:23 55.53165 82.99620 10621 ft 255 kts 226°
2026-05-05 15:24 55.51752 82.97730 10336 ft 254 kts 226°
2026-05-05 15:24 55.50348 82.95856 10076 ft 252 kts 226°
2026-05-05 15:24 55.48951 82.93997 9802 ft 251 kts 226°
2026-05-05 15:24 55.47559 82.92149 9484 ft 250 kts 226°
2026-05-05 15:25 55.46169 82.90304 9165 ft 249 kts 226°
2026-05-05 15:25 55.44718 82.88595 8844 ft 258 kts 214°
2026-05-05 15:25 55.42979 82.87596 8549 ft 264 kts 206°
2026-05-05 15:25 55.41215 82.86713 8243 ft 263 kts 206°
2026-05-05 15:26 55.39455 82.85810 7956 ft 263 kts 206°
2026-05-05 15:26 55.37703 82.84895 7655 ft 263 kts 206°
2026-05-05 15:26 55.35955 82.83974 7377 ft 262 kts 207°
2026-05-05 15:26 55.34213 82.83055 7104 ft 261 kts 206°
2026-05-05 15:27 55.32450 82.82228 6807 ft 268 kts 196°
2026-05-05 15:27 55.30534 82.82479 6506 ft 281 kts 179°
2026-05-05 15:27 55.28636 82.83081 6240 ft 280 kts 179°
2026-05-05 15:27 55.26727 82.83676 5966 ft 278 kts 179°
2026-05-05 15:28 55.24817 82.84259 5685 ft 278 kts 179°
2026-05-05 15:28 55.22934 82.84825 5516 ft 267 kts 179°
2026-05-05 15:28 55.21167 82.85356 5441 ft 250 kts 180°
2026-05-05 15:28 55.19499 82.85848 5338 ft 237 kts 180°
2026-05-05 15:29 55.17915 82.86311 5235 ft 224 kts 180°
2026-05-05 15:29 55.16408 82.86749 5052 ft 217 kts 181°
2026-05-05 15:29 55.14918 82.87305 4765 ft 221 kts 173°
2026-05-05 15:29 55.13445 82.88076 4482 ft 220 kts 172°
2026-05-05 15:30 55.11984 82.88855 4182 ft 219 kts 170°
2026-05-05 15:30 55.10537 82.89221 3874 ft 203 kts 197°
2026-05-05 15:30 55.09170 82.88881 3649 ft 197 kts 195°
2026-05-05 15:30 55.07818 82.88615 3418 ft 194 kts 195°
2026-05-05 15:31 55.06484 82.88368 3175 ft 192 kts 194°
2026-05-05 15:31 55.05172 82.88131 2883 ft 188 kts 194°
2026-05-05 15:31 55.03966 82.87605 2559 ft 174 kts 222°
2026-05-05 15:31 55.03409 82.85997 2455 ft 147 kts 262°
2026-05-05 15:32 55.03143 82.84249 2278 ft 149 kts 259°
2026-05-05 15:32 55.02879 82.82523 2063 ft 144 kts 261°
2026-05-05 15:32 55.02691 82.80896 1899 ft 133 kts 264°
2026-05-05 15:32 55.02542 82.79261 1708 ft 137 kts 264°
2026-05-05 15:33 55.02392 82.77626 1498 ft 136 kts 263°
2026-05-05 15:33 55.02244 82.76008 1318 ft 136 kts 263°
2026-05-05 15:33 55.02091 82.74348 1141 ft 141 kts 261°
2026-05-05 15:33 55.01936 82.72656 942 ft 142 kts 259°
2026-05-05 15:34 55.01781 82.70968 758 ft 143 kts 259°
2026-05-05 15:34 55.01631 82.69255 566 ft 143 kts 259°
2026-05-05 15:34 55.01478 82.67583 398 ft 134 kts 259°
2026-05-05 15:34 55.01345 82.66135 355 ft 105 kts 260°
2026-05-05 15:35 55.01276 82.65425 356 ft 31 kts 261°
2026-05-05 15:35 55.01254 82.65178 360 ft 15 kts 261°
2026-05-05 15:35 55.01222 82.65062 357 ft 11 kts 206°
2026-05-05 15:35 55.01153 82.65066 355 ft 9 kts 172°
2026-05-05 15:36 55.01101 82.65079 358 ft 7 kts 172°
2026-05-05 15:36 55.01083 82.65084 357 ft 0 kts 172°
2026-05-05 15:36 55.01082 82.65084 357 ft 1 kts 172°
2026-05-05 15:37 55.01063 82.65089 359 ft 5 kts 172°
2026-05-05 15:37 55.01025 82.65100 360 ft 6 kts 169°
2026-05-05 15:37 55.00987 82.65112 358 ft 6 kts 170°
2026-05-05 15:37 55.00949 82.65130 363 ft 6 kts 143°
2026-05-05 15:38 55.00942 82.65197 355 ft 6 kts 84°
2026-05-05 15:38 55.00947 82.65275 355 ft 7 kts 87°
2026-05-05 15:38 55.00912 82.65322 359 ft 8 kts 162°
2026-05-05 15:38 55.00895 82.65407 358 ft 10 kts 82°
2026-05-05 15:39 55.00907 82.65547 355 ft 13 kts 81°
2026-05-05 15:39 55.00921 82.65704 355 ft 13 kts 81°
2026-05-05 15:39 55.00936 82.65860 357 ft 13 kts 81°
2026-05-05 15:39 55.00950 82.66015 355 ft 13 kts 81°
2026-05-05 15:40 55.00973 82.66138 360 ft 10 kts 70°
2026-05-05 15:40 55.00988 82.66257 358 ft 10 kts 79°
2026-05-05 15:40 55.01017 82.66354 355 ft 7 kts 70°
2026-05-05 15:40 55.00989 82.66406 358 ft 7 kts 167°
2026-05-05 15:41 55.00957 82.66414 360 ft 0 kts 171°